This is the latest recevied weather packets stored in our database for station/object KI4FRU. If no packets are shown the sender has not sent any weather packets the latest 10 day(s).
| Time | Temp. | Humidity | Pressure | Rain* | Wind** | Luminosity | Snow |
|---|---|---|---|---|---|---|---|
| 1777376894 | 11.67° C | 99% | 1063.1 hPa | 7.87 mm | - | 4 W/m² | - |
| 1777376590 | 11.67° C | 99% | 1063.2 hPa | 6.1 mm | - | 4 W/m² | - |
| 1777376287 | 11.67° C | 99% | 1062.8 hPa | 6.1 mm | - | 4 W/m² | - |
| 1777375982 | 11.67° C | 99% | 1062.8 hPa | 4.32 mm | - | 3 W/m² | - |
| 1777375676 | 11.67° C | 99% | 1062.8 hPa | 6.1 mm | - | 2 W/m² | - |
| 1777375376 | 11.67° C | 99% | 1062.8 hPa | 4.32 mm | - | 2 W/m² | - |
| 1777375074 | 11.67° C | 99% | 1062.4 hPa | 3.05 mm | - | 1 W/m² | - |
| 1777374768 | 11.67° C | 99% | 1062.4 hPa | 4.83 mm | - | 1 W/m² | - |
| 1777374465 | 11.67° C | 99% | 1062.2 hPa | 6.1 mm | - | 1 W/m² | - |
| 1777374162 | 11.67° C | 99% | 1062.3 hPa | 7.87 mm | - | 1 W/m² | - |
| 1777373858 | 11.67° C | 99% | 1062 hPa | 6.1 mm | - | 0 W/m² | - |
| 1777373555 | 11.67° C | 99% | 1062 hPa | 1.27 mm | - | 0 W/m² | - |
| 1777373251 | 12.22° C | 99% | 1062 hPa | 0 mm | - | 0 W/m² | - |
| 1777372946 | 12.22° C | 99% | 1061.5 hPa | 0 mm | - | 0 W/m² | - |
| 1777372641 | 12.22° C | 99% | 1061.4 hPa | 0 mm | - | 0 W/m² | - |
| 1777372341 | 12.22° C | 99% | 1062.3 hPa | 0 mm | - | 0 W/m² | - |
| 1777372039 | 12.22° C | 99% | 1062.7 hPa | 0 mm | - | 0 W/m² | - |
| 1777371735 | 12.22° C | 99% | 1062.9 hPa | 0 mm | - | 0 W/m² | - |
| 1777371432 | 11.67° C | 99% | 1062.9 hPa | 0 mm | - | 0 W/m² | - |
| 1777371129 | 11.67° C | 99% | 1063.1 hPa | 0 mm | - | 0 W/m² | - |
| 1777370825 | 11.67° C | 99% | 1062.9 hPa | 0 mm | - | 0 W/m² | - |
| 1777370521 | 11.67° C | 99% | 1061.8 hPa | 0 mm | - | 0 W/m² | - |
| 1777370217 | 11.11° C | 99% | 1061.1 hPa | 0 mm | - | 0 W/m² | - |
| 1777369913 | 11.11° C | 99% | 1060.5 hPa | 0 mm | - | 0 W/m² | - |
| 1777369609 | 11.11° C | 99% | 1060 hPa | 0 mm | - | 0 W/m² | - |
* Rain latest hour (hover to see other rain measurements)
** Current wind speed in m/s (hover to see current wind gust speed)